Погода в Джельфе

Алжир     34°39′25″N   3°15′06″E
темп.,
°C
ветер,
м/с
пор.,
м/с
влажн.,
%
обл.,
%
осадки,
мм/ч
давл.,
гПа
погр.,
м
27 октября, ср
ср2701:00+15ю354894 0.0 101989
04:00+14ю3554100 0.0 1019117
07:00+13всв1267100 0.6 101990
10:00+13всв5561100 0.6 1020262
13:00+16юв454789 0.6 10191323
16:00+16ю344696 0.5 1017743
19:00+13ю6863100 0.8 1018308
22:00+13ю696934 0.3 1019261
28 октября, чт
чт2801:00+12ююз596399 0.6 1019262
04:00+11зсз2574100 0.3 1018149
07:00+12ююз246914 0.8 1018111
10:00+15зюз335291 0.0 1018724
13:00+18з573947 0.1 10172152
16:00+19зсз6835100 0.0 10152161
19:00+16ссз234423 0.0 101633
22:00+14юв22508 0.0 101819
29 октября, пт
пт2901:00+14юз33525 0.0 101731
04:00+15зюз595242 0.0 1016206
07:00+12зюз47615 0.0 101795
10:00+17з71146100 0.0 1017804
13:00+20зсз8123438 0.0 10162051
16:00+20сз793235 0.0 10152322
19:00+17ссз3638100 0.0 1017106
22:00+15сз224588 0.0 101821
30 октября, сб
сб3001:00+14з2251100 0.0 101913
04:00+13з2253100 0.0 101811
07:00+13зюз335017 0.0 101911
10:00+18з343794 0.0 1019411
13:00+21зсз562923 0.0 10181481
16:00+22зсз56255 0.0 10171904
19:00+18з33315 0.0 101923
22:00+17з333560 0.0 102116
31 октября, вс
вс3101:00+15юз113914 0.0 102011
04:00+15зюз223855 0.0 102011
07:00+14зюз22405 0.0 102111
10:00+19з45315 0.0 1022407
13:00+22зсз67257 0.0 10201019
16:00+22сз67285 0.0 10191529
19:00+19сз474210 0.0 1020117
22:00+16зсз23513 0.0 102225